Flag for India Weather past 2 weeks in Kolkata, West Bengal, India

Now
72 °F

Haze.


Feels Like: 75 °F
Forecast: 60 / 84 °F
Wind: 5 mph from Northwest

Location: Calcutta / Dum Dum

Current Time: Mar 5, 2015 at 8:37:50 AM

Latest Report: Mar 5, 2015 at 7:20 AM


Visibility: 2 mi

Pressure: 29.95 "Hg

Humidity: 65%

Dew point: 59 °F

Location of KolkataLocation

Historic Weather in Kolkata — Graph

°F

Kolkata temperature yesterday

Maximum temperature yesterday: 81 °F (at 1:50 PM)
Minimum temperature yesterday: 68 °F (at 9:20 AM)
Average temperature yesterday: 75 °F

Past Weeks' High & Low Weather Summary

 TemperatureHumidityPressure
High93 °F (Feb 21, 5:20 PM)100% (Mar 1, 7:20 AM)30.01 "Hg (Mar 1, 7:20 AM)
Low68 °F (Feb 19, 7:20 AM)30% (Mar 2, 3:20 PM)29.68 "Hg (Feb 26, 6:20 PM)
Average79 °F69%29.85 "Hg
* Reported Feb 18 6:50 AM — Mar 5 7:20 AM, Kolkata, Weather by CustomWeather, © 2015

Note: Actual official high and low records may vary slightly from our data, if they occured in-between our weather recording intervals... More about our weather records

Advertising

Kolkata weather history for previous 24 hours

 ConditionsComfort  
Time TempWeatherWind HumidityBarometerVisibility
7:20 AM
Thu, Mar 5
72 °FHaze.5 mph65%29.95 "Hg2 mi
6:50 AM70 °FHaze.5 mph69%29.95 "Hg1 mi
6:20 AM70 °FHaze.5 mph73%29.92 "Hg1 mi
5:50 AM70 °FPassing clouds.5 mph73%29.92 "Hg1 mi
5:20 AM70 °FPassing clouds.7 mph69%29.89 "Hg1 mi
4:50 AM70 °FPassing clouds.7 mph69%29.89 "Hg1 mi
4:20 AM70 °FPassing clouds.8 mph69%29.86 "Hg1 mi
3:50 AM72 °FPassing clouds.7 mph69%29.86 "Hg1 mi
2:50 AM72 °FFog.8 mph94%29.86 "Hg1 mi
2:20 AM72 °FFog.8 mph94%29.86 "Hg1 mi
1:50 AM72 °FFog.8 mph94%29.86 "Hg1 mi
1:20 AM72 °FFog.3 mph94%29.86 "Hg1 mi
12:50 AM72 °FFog.3 mph94%29.86 "Hg1 mi
12:20 AM72 °FFog.3 mph94%29.89 "Hg1 mi
11:50 PM
Wed, Mar 4
72 °FFog.5 mph94%29.89 "Hg1 mi
11:20 PM73 °FFog.3 mph89%29.86 "Hg1 mi
10:50 PM73 °FFog.No wind89%29.86 "Hg1 mi
10:20 PM73 °FFog.No wind89%29.86 "Hg1 mi
9:50 PM73 °FFog.5 mph89%29.86 "Hg1 mi
9:20 PM75 °FFog.3 mph83%29.86 "Hg1 mi
8:50 PM75 °FFog.3 mph83%29.86 "Hg1 mi
8:20 PM75 °FHaze.5 mph78%29.86 "Hg1 mi
7:50 PM75 °FHaze.5 mph78%29.86 "Hg2 mi
7:20 PM75 °FHaze.5 mph78%29.83 "Hg2 mi
6:50 PM77 °FPassing clouds.6 mph74%29.83 "Hg2 mi
6:20 PM77 °FPassing clouds.5 mph69%29.83 "Hg2 mi
5:50 PM77 °FScattered clouds.5 mph69%29.83 "Hg2 mi
5:20 PM79 °FHaze.6 mph65%29.80 "Hg2 mi
4:50 PM79 °FHaze.5 mph61%29.80 "Hg2 mi
4:20 PM79 °FHaze.6 mph61%29.83 "Hg2 mi
3:50 PM81 °FScattered clouds.7 mph58%29.80 "Hg2 mi
3:20 PM81 °FScattered clouds.7 mph58%29.80 "Hg2 mi
2:50 PM81 °FHaze.6 mph58%29.83 "Hg3 mi
2:20 PM81 °FHaze.5 mph58%29.83 "Hg3 mi
1:50 PM81 °FHaze.8 mph58%29.83 "Hg3 mi
1:20 PM79 °FHaze.6 mph61%29.86 "Hg3 mi
12:50 PM79 °FHaze.7 mph61%29.86 "Hg3 mi
12:20 PM77 °FHaze.7 mph65%29.89 "Hg2 mi
11:50 AM77 °FHaze.7 mph69%29.89 "Hg2 mi
11:20 AM75 °FHaze.7 mph74%29.92 "Hg2 mi
10:20 AM70 °FBroken clouds.7 mph94%29.92 "Hg2 mi
9:20 AM68 °FThunderstorms. Broken clouds.9 mph94%29.89 "Hg1 mi
8:20 AM70 °FMild.5 mph94%29.92 "Hg1 mi
Weather by CustomWeather, © 2015

See weather overviewHow to use our weather pages